Station JMPN7 - 8658163 - Wrightsville Beach, NC Image indicating link to RSS feed of recent meteorological observations for station JMPN7


Conditions at JMPN7 as of
(11:00 am EDT)
1500 GMT on 07/13/2024:
     

Click on the graph icon in the table below to see a time series plot of the last five days of that observation.

5-day plot - Wind Direction Wind Direction (WDIR):SSW ( 210 deg true )
5-day plot - Wind Speed Wind Speed (WSPD): 8.9 kts
5-day plot - Wind Gust Wind Gust (GST): 9.9 kts
5-day plot - Atmospheric Pressure Atmospheric Pressure (PRES):30.16 in
5-day plot - Pressure Tendency Pressure Tendency (PTDY):-0.01 in ( Falling )
5-day plot - Air Temperature Air Temperature (ATMP): 79.2 °F
5-day plot - Water Temperature Water Temperature (WTMP): 82.6 °F
5-day plot - Wind Speed at 10 Meters Wind Speed at 10 meters (WSPD10M): 9.7 kts
5-day plot - Wind Speed at 20 Meters Wind Speed at 20 meters (WSPD20M): 9.7 kts
5-day plot -  Wind Speed, Wind Gust and Atmospheric Pressure Combined plot of Wind Speed, Gust, and Air Pressure
NOS Water Level Observation Network Water Level
Previous observations
TIME
(EDT)
5-day plot - Wind Direction
WDIR
 
5-day plot - Wind Speed
WSPD
kts
5-day plot - Wind Gust
GST
kts
5-day plot - Wave Height
WVHT
ft
5-day plot - Dominant Wave Period
DPD
sec
5-day plot - Average Wave Period
APD
sec
5-day plot - Mean Wave Direction
MWD
 
5-day plot - Atmospheric Pressure
PRES
in
5-day plot - Pressure Tendency
PTDY
in
5-day plot - Air Temperature
ATMP
°F
5-day plot - Water Temperature
WTMP
°F
5-day plot - Dew Point
DEWP
°F
5-day plot - Salinity
SAL
psu
5-day plot - Visibility
VIS
nmi
5-day plot - Tide (above MLLW)
TIDE
ft
2024-07-13 10:54 amSSW 7.0 8.0----30.16- 79.0 82.6----
2024-07-13 10:48 amSSW 8.0 11.1----30.16- 79.0 82.6----
2024-07-13 10:42 am SW 11.1 12.0----30.16- 79.0 82.6----
2024-07-13 10:36 amSSW 9.9 13.0----30.16- 79.3 82.4----
2024-07-13 10:30 amSSW 11.1 13.0----30.16- 79.3 82.6----
2024-07-13 10:24 amSSW 11.1 13.0----30.16- 79.3 82.6----
2024-07-13 10:18 amSSW 11.1 14.0----30.16- 79.3 82.6----
2024-07-13 10:12 am S 13.0 15.0----30.16- 79.3 82.6----
2024-07-13 10:06 am S 12.0 13.0----30.16- 79.2 82.6----
2024-07-13 10:00 amSSW 11.1 13.0----30.16+0.02 79.2 82.6----
2024-07-13 09:54 amSSW 9.9 11.1----30.16- 79.2 82.6----
2024-07-13 09:48 am S 8.9 9.9----30.16- 79.0 82.6----
2024-07-13 09:42 am S 8.9 11.1----30.16- 78.8 82.6----
2024-07-13 09:36 am S 9.9 12.0----30.16- 78.4 82.6----
2024-07-13 09:30 am S 9.9 12.0----30.16- 78.4 82.6----
2024-07-13 09:24 am S 9.9 12.0----30.16- 78.3 82.6----
2024-07-13 09:18 am S 9.9 11.1----30.16- 77.9 82.6----
2024-07-13 09:12 am S 8.0 9.9----30.16- 77.4 82.6----
2024-07-13 09:06 amSSW 5.1 7.0----30.16- 77.0 82.6----
2024-07-13 09:00 amSSW 5.1 5.1----30.16+0.03 76.6 82.6----
2024-07-13 08:54 amSSW 5.1 6.0----30.16- 75.9 82.4----
2024-07-13 08:48 am- 0.0 1.9----30.17- 75.9 82.6----
2024-07-13 08:42 am- 0.0 1.9----30.17- 75.6 82.6----
2024-07-13 08:36 am W 1.9 2.9----30.17- 75.4 82.6----
2024-07-13 08:30 amWSW 2.9 5.1----30.17- 75.6 82.6----
2024-07-13 08:24 amSSW 5.1 7.0----30.17- 75.4 82.6----
2024-07-13 08:18 amSSW 8.0 12.0----30.18- 75.7 82.6----
2024-07-13 08:12 am S 8.0 17.1----30.18- 76.6 82.6----
2024-07-13 08:06 am SW 18.1 22.0----30.18- 76.8 82.6----
2024-07-13 08:00 amSSW 22.9 28.9----30.17+0.07 77.9 82.6----
2024-07-13 07:54 am S 27.0 31.1----30.16- 78.4 82.6----
2024-07-13 07:48 am S 17.1 22.0----30.16-- 82.6----
2024-07-13 07:42 amSSW 19.0 22.9----30.16-- 82.6----
2024-07-13 07:36 am SW 9.9 11.1----30.15-- 82.6----
2024-07-13 07:30 am S 7.0 8.9----30.14-- 82.6----
2024-07-13 07:24 am SW 6.0 11.1----30.15-- 82.6----
2024-07-13 07:18 amSSW 7.0 11.1----30.14- 78.4 82.6----
2024-07-13 07:12 amSSW 5.1 8.0----30.14- 78.4 82.8----
2024-07-13 07:06 amSSW 4.1 5.1----30.14- 77.4 82.8----
2024-07-13 07:00 amWSW 2.9 5.1----30.14- 77.0 82.8----
2024-07-13 06:54 amWSW 4.1 5.1----30.14- 76.8 82.8----
2024-07-13 06:48 amWSW 2.9 7.0----30.15- 76.8 82.8----
2024-07-13 06:42 amSSW 7.0 9.9----30.14- 76.5 82.6----
2024-07-13 06:36 amSSW 7.0 8.9----30.14- 76.6 82.6----
2024-07-13 06:30 amWSW 4.1 9.9----30.14- 76.5 82.6----
2024-07-13 06:24 amWSW 8.0 9.9----30.14- 76.8 82.6----
2024-07-13 06:18 am SW 8.0 9.9----30.14- 77.0 82.8----
2024-07-13 06:12 am SW 6.0 11.1----30.14- 77.4 82.8----
2024-07-13 06:06 amWSW 8.9 9.9----30.14- 77.5 82.8----
2024-07-13 06:00 amWSW 7.0 15.9----30.14+0.04- 82.8----
2024-07-13 05:54 amWSW 11.1 14.0----30.13-- 82.8----
2024-07-13 05:48 amWSW 12.0 20.0----30.13-- 82.8----
2024-07-13 05:42 am S 17.1 19.0----30.12-- 82.8----
2024-07-13 05:36 am S 17.1 19.0----30.11-- 82.8----
2024-07-13 05:30 am S 17.1 18.1----30.11- 81.9 82.9----
2024-07-13 05:24 am S 13.0 17.1----30.11- 82.0 82.8----
2024-07-13 05:18 am S 13.0 15.0----30.11- 82.6 82.9----
2024-07-13 05:12 am S 13.0 15.9----30.11- 82.6 82.8----
2024-07-13 05:06 am S 15.0 17.1----30.11- 82.6 82.8----
2024-07-13 05:00 am S 15.0 17.1----30.10+0.00 82.4 82.9----
2024-07-13 04:54 am S 15.9 18.1----30.11- 82.6 82.9----
2024-07-13 04:48 am S 15.0 17.1----30.10- 82.4 82.8----
2024-07-13 04:42 am S 15.0 17.1----30.10- 82.4 82.9----
2024-07-13 04:36 am S 13.0 15.0----30.09- 82.4 82.8----
2024-07-13 04:30 am S 12.0 15.9----30.09- 82.6 82.9----
2024-07-13 04:24 am S 15.0 17.1----30.09- 82.4 82.9----
2024-07-13 04:18 am S 12.0 14.0----30.09- 82.6 82.9----
2024-07-13 04:12 am S 13.0 17.1----30.09- 82.4 82.9----
2024-07-13 04:06 am S 14.0 18.1----30.09- 82.4 82.9----
2024-07-13 04:00 am S 15.9 19.0------ 82.4 82.9----
2024-07-13 03:54 am S 18.1 19.0------ 82.2 82.9----
2024-07-13 03:48 am S 18.1 20.0----30.09- 82.6 82.9----
2024-07-13 03:42 am S 15.0 17.1----30.09- 82.8 82.9----
2024-07-13 03:36 am S 15.0 18.1----30.09- 82.8 82.9----
2024-07-13 03:30 am S 14.0 17.1----30.09- 82.9 82.9----
2024-07-13 03:24 am S 15.0 17.1----30.09- 82.9 82.9----
2024-07-13 03:18 am S 13.0 17.1----30.09- 82.8 82.9----
2024-07-13 03:12 am S 15.0 18.1----30.09- 82.8 82.9----
2024-07-13 03:06 am S 15.0 18.1----30.09- 82.9 82.9----
2024-07-13 03:00 am S 13.0 15.0----30.09-0.02 82.8 82.9----
2024-07-13 02:54 am S 13.0 15.0----30.09- 82.4 82.9----
2024-07-13 02:48 am S 13.0 15.9----30.10- 82.6 82.9----
2024-07-13 02:42 am S 13.0 17.1----30.10- 82.4 82.9----
2024-07-13 02:36 am S 14.0 17.1----30.10- 82.4 82.9----
2024-07-13 02:30 am S 17.1 19.0----30.11- 82.4 82.9----
2024-07-13 02:24 am S 15.9 18.1----30.11- 82.8 82.9----
2024-07-13 02:18 am S 15.9 19.0----30.10- 82.6 82.9----
2024-07-13 02:12 am S 15.9 18.1----30.10- 82.6 82.9----
2024-07-13 02:06 am S 13.0 15.0----30.11- 82.0 83.1----
2024-07-13 02:00 am S 12.0 15.0----30.11-0.01 81.9 83.1----
2024-07-13 01:54 am S 12.0 13.0----30.11- 81.7 83.1----
2024-07-13 01:48 am S 12.0 14.0----30.11- 81.7 83.1----
2024-07-13 01:42 am S 14.0 15.9----30.11- 81.5 82.9----
2024-07-13 01:36 am S 14.0 17.1----30.11- 81.3 83.1----
2024-07-13 01:30 am S 17.1 18.1----30.11- 81.3 82.9----
2024-07-13 01:24 am S 17.1 19.0----30.12- 81.3 82.9----
2024-07-13 01:18 am S 17.1 20.0----30.12- 81.5 83.1----
2024-07-13 01:12 am S 15.9 18.1----30.11- 81.5 83.1----
2024-07-13 01:06 am S 17.1 19.0----30.12- 81.3 83.1----
2024-07-13 01:00 am S 20.0 22.0----30.12+0.00 81.3 83.1----
2024-07-13 12:54 amSSW 17.1 19.0----30.12- 81.0 83.1----
2024-07-13 12:48 am S 18.1 20.0----30.12- 81.7 83.1----
2024-07-13 12:42 am S 17.1 19.0----30.12- 81.7 83.1----
2024-07-13 12:36 am S 15.9 19.0----30.13- 81.7 83.1----
2024-07-13 12:30 am S 15.9 19.0----30.13- 81.7 83.1----
2024-07-13 12:24 am S 19.0 21.0----30.12- 81.5 83.1----
2024-07-13 12:18 am S 20.0 22.9----30.12- 81.5 83.1----
2024-07-13 12:12 am S 21.0 24.1----30.12- 81.3 83.1----
2024-07-13 12:06 am S 21.0 24.1----30.12- 81.7 83.1----
2024-07-13 12:00 am S 19.0 22.0----30.11+0.01 81.7 83.1----
2024-07-12 11:54 pm S 21.0 26.0----30.11- 82.0 83.1----
2024-07-12 11:48 pm S 17.1 19.0----30.12- 83.3 83.1----
2024-07-12 11:42 pm S 15.9 20.0----30.12- 83.3 83.1----
2024-07-12 11:36 pm S 19.0 20.0----30.12- 83.5 83.1----
2024-07-12 11:30 pm S 18.1 21.0----30.11- 83.5 83.1----
2024-07-12 11:24 pm S 19.0 20.0----30.11- 83.5 83.1----
2024-07-12 11:18 pm S 18.1 20.0----30.11- 83.5 83.1----
2024-07-12 11:12 pm S 18.1 19.0----30.11- 83.3 83.3----
2024-07-12 11:06 pm S 14.0 15.9----30.12- 83.1 83.1----
2024-07-12 11:00 pm S 13.0 15.0----30.12+0.04 82.9 83.1----
2024-07-12 10:54 pm S 13.0 15.0----30.12- 82.9 83.1----
2024-07-12 10:48 pm S 14.0 15.9----30.12- 82.9 83.3----
2024-07-12 10:42 pm S 15.0 18.1----30.12- 82.9 83.3----
2024-07-12 10:36 pm S 17.1 19.0----30.12- 82.9 83.3----
2024-07-12 10:30 pm S 18.1 20.0----30.12- 82.9 83.3----
2024-07-12 10:24 pm S 18.1 20.0----30.12- 82.9 83.1----
2024-07-12 10:18 pm S 15.0 20.0----30.12- 82.9 83.1----
2024-07-12 10:12 pm S 17.1 19.0----30.12- 82.9 83.3----
2024-07-12 10:06 pm S 17.1 19.0----30.11- 82.6 83.1----
2024-07-12 10:00 pm S 17.1 19.0----30.11+0.04 82.6 83.3----
2024-07-12 09:54 pmSSE 15.9 19.0----30.11- 82.4 83.3----
2024-07-12 09:48 pmSSE 18.1 20.0----30.11- 82.8 83.3----
2024-07-12 09:42 pm S 18.1 21.0----30.11- 82.9 83.3----
2024-07-12 09:36 pm S 17.1 20.0----30.11- 83.1 83.3----
2024-07-12 09:30 pm S 17.1 20.0----30.11- 82.8 83.3----
2024-07-12 09:24 pmSSE 17.1 19.0----30.11- 82.8 83.3----
2024-07-12 09:18 pm S 17.1 21.0----30.11- 82.8 83.3----
2024-07-12 09:12 pm S 18.1 21.0----30.11- 82.6 83.3----
2024-07-12 09:06 pm S 19.0 21.0----30.10- 82.6 83.3----
2024-07-12 09:00 pm S 20.0 24.1----30.10+0.03 82.6 83.3----
2024-07-12 08:54 pm S 22.0 25.1----30.10- 82.4 83.3----
2024-07-12 08:48 pm S 21.0 26.0----30.09- 82.4 83.3----
2024-07-12 08:42 pmSSE 21.0 22.9----30.09- 82.0 83.3----
2024-07-12 08:36 pmSSE 21.0 25.1----30.09- 81.9 83.3----
2024-07-12 08:30 pm S 21.0 25.1----30.09- 82.0 83.3----
2024-07-12 08:24 pmSSE 22.9 26.0----30.09- 81.9 83.3----
2024-07-12 08:18 pmSSE 21.0 25.1----30.09- 81.9 83.3----
2024-07-12 08:12 pm SE 20.0 25.1----30.08- 81.3 83.3----
2024-07-12 08:06 pmSSE 24.1 28.0----30.07- 81.3 83.3----
2024-07-12 08:00 pmSSE 24.1 27.0----30.08+0.01 82.0 83.3----
2024-07-12 07:54 pmSSE 22.9 26.0----30.08- 81.5 83.3----
2024-07-12 07:48 pmSSE 21.0 24.1----30.09- 81.3 83.3----
2024-07-12 07:42 pmSSE 22.9 26.0----30.09- 81.3 83.3----
2024-07-12 07:36 pm SE 22.9 25.1----30.09- 81.3 83.3----
2024-07-12 07:30 pm SE 24.1 26.0----30.09- 81.1 83.3----
2024-07-12 07:24 pm SE 21.0 24.1----30.09- 81.5 83.3----
2024-07-12 07:00 pm SE 20.0 22.9----30.08+0.02 81.0 83.5----
2024-07-12 06:54 pmSSE 18.1 21.0----30.07- 81.5 83.5----
2024-07-12 06:48 pmSSE 19.0 22.0----30.07-- 83.5----
2024-07-12 06:42 pm S 18.1 20.0----30.07-- 83.5----
2024-07-12 06:36 pm S 17.1 19.0----30.07-- 83.5----
2024-07-12 06:30 pm S 15.9 20.0----30.07- 81.9 83.5----
2024-07-12 06:24 pm S 19.0 22.0----30.06- 81.3 83.5----
2024-07-12 06:18 pmSSE 19.0 25.1----30.06-- 83.5----
2024-07-12 06:12 pmSSE 19.0 24.1----30.06-- 83.5----
2024-07-12 06:06 pmSSE 19.0 21.0----30.06-- 83.5----
2024-07-12 06:00 pmSSE 15.9 19.0----30.07+0.00 81.1 83.5----
2024-07-12 05:54 pmSSE 15.9 19.0----30.07- 80.2 83.5----
2024-07-12 05:48 pmSSE 15.9 18.1----30.07- 80.2 83.5----
2024-07-12 05:42 pmSSE 17.1 21.0----30.07- 80.2 83.5----
2024-07-12 05:36 pmSSE 19.0 28.0----30.07- 79.7 83.5----
2024-07-12 05:30 pmSSE 22.9 25.1----30.07- 80.8 83.5----
2024-07-12 05:24 pmSSE 20.0 22.9----30.07- 81.5 83.5----
2024-07-12 05:18 pmSSE 19.0 22.0----30.07- 81.0 83.5----
2024-07-12 05:12 pmSSE 20.0 22.0----30.07- 80.6 83.5----
2024-07-12 05:06 pmSSE 20.0 22.9----30.07- 80.2 83.5----
2024-07-12 05:00 pm S 22.0 24.1----30.07+0.00 79.7 83.5----
2024-07-12 04:54 pmSSE 22.0 25.1----30.07- 80.1 83.5----
2024-07-12 04:48 pmSSE 18.1 22.9----30.07- 79.3 83.7----
2024-07-12 04:42 pm S 22.0 25.1----30.07- 78.6 83.5----
2024-07-12 04:36 pmSSE 22.0 28.9----30.07- 77.7 83.7----
2024-07-12 04:30 pm S 21.0 34.0----30.07- 78.8 83.7----
2024-07-12 04:24 pm S 29.9 34.0----30.06- 78.3 83.7----
2024-07-12 04:18 pmSSE 22.9 27.0----30.06- 83.1 83.7----
2024-07-12 04:12 pmSSE 22.9 25.1----30.05- 83.3 83.7----
2024-07-12 04:06 pmSSE 21.0 24.1----30.06- 83.1 83.7----
2024-07-12 04:00 pmSSE 20.0 24.1----30.06-0.01 82.8 83.7----
2024-07-12 03:54 pmSSE 21.0 25.1----30.06- 82.6 83.5----
2024-07-12 03:48 pmSSE 22.9 25.1----30.06- 82.9 83.7----
2024-07-12 03:42 pmSSE 22.0 25.1----30.06- 83.5 83.7----
2024-07-12 03:36 pmSSE 21.0 27.0----30.06- 83.5 83.7----
2024-07-12 03:30 pmSSE 25.1 29.9----30.05- 83.3 83.5----
2024-07-12 03:24 pmSSE 25.1 28.0----30.05- 83.1 83.7----
2024-07-12 03:18 pmSSE 22.0 28.9----30.06- 83.8 83.7----
2024-07-12 03:12 pmSSE 19.0 24.1----30.06- 84.0 83.7----
2024-07-12 03:06 pmSSE 22.9 25.1----30.06- 83.8 83.5----
2024-07-12 03:00 pmSSE 21.0 26.0----30.07-0.02 83.7 83.5----
2024-07-12 02:54 pmSSE 22.0 26.0----30.07- 83.5 83.7----
2024-07-12 02:48 pmSSE 22.0 27.0----30.07- 83.5 83.5----
2024-07-12 02:42 pmSSE 22.0 27.0----30.06- 83.5 83.5----
2024-07-12 02:36 pmSSE 22.0 27.0----30.06- 84.0 83.5----
2024-07-12 02:30 pmSSE 25.1 28.0----30.07- 84.0 83.5----
2024-07-12 02:24 pmSSE 25.1 27.0----30.07- 84.0 83.3----
2024-07-12 02:18 pmSSE 22.9 26.0----30.07- 84.0 83.5----
2024-07-12 02:12 pmSSE 21.0 25.1----30.07- 84.0 83.3----
2024-07-12 02:06 pmSSE 22.0 28.0----30.07- 84.2 83.5----
2024-07-12 02:00 pmSSE 24.1 26.0----30.07-0.01 84.0 83.5----
2024-07-12 01:54 pmSSE 21.0 22.9----30.08- 84.0 83.3----
2024-07-12 01:48 pmSSE 18.1 22.9----30.08- 83.8 83.1----
2024-07-12 01:42 pmSSE 22.0 24.1----30.08- 84.0 83.3----
2024-07-12 01:36 pmSSE 22.0 25.1----30.07- 83.8 83.5----
2024-07-12 01:30 pmSSE 21.0 25.1----30.07- 83.8 83.3----
2024-07-12 01:24 pmSSE 19.0 24.1----30.07- 83.7 83.1----
2024-07-12 01:18 pmSSE 21.0 27.0----30.07- 83.7 83.1----
2024-07-12 01:12 pmSSE 22.9 26.0----30.07- 83.7 83.1----
2024-07-12 01:06 pmSSE 22.9 26.0----30.07- 83.8 83.1----
2024-07-12 01:00 pmSSE 22.9 27.0----30.07+0.00 84.0 83.1----
2024-07-12 12:54 pmSSE 22.9 28.0----30.07- 83.8 83.1----
2024-07-12 12:48 pmSSE 21.0 24.1----30.08- 84.0 83.1----
2024-07-12 12:42 pmSSE 21.0 25.1----30.08- 84.2 83.1----
2024-07-12 12:36 pmSSE 18.1 20.0----30.09- 83.5 82.9----
2024-07-12 12:30 pmSSE 19.0 21.0----30.09- 83.3 82.9----
2024-07-12 12:24 pmSSE 19.0 22.0----30.09- 83.3 83.1----
2024-07-12 12:18 pm S 19.0 22.9----30.09- 83.1 83.1----
2024-07-12 12:12 pm S 22.0 25.1----30.09- 83.1 82.9----
2024-07-12 12:06 pmSSE 22.0 27.0----30.09- 83.3 83.1----
2024-07-12 12:00 pm SE 22.9 27.0----30.09+0.04 83.8 82.9----
2024-07-12 11:54 amSSE 21.0 25.1----30.09- 83.8 82.9----
2024-07-12 11:48 amSSE 22.0 25.1----30.09- 83.8 82.9----
2024-07-12 11:42 am SE 21.0 22.9----30.08- 83.8 82.9----
2024-07-12 11:36 amSSE 21.0 25.1----30.08- 83.8 82.9----
2024-07-12 11:30 amSSE 22.9 26.0----30.08- 84.0 82.9----
2024-07-12 11:24 amSSE 21.0 26.0----30.08- 83.8 82.8----
2024-07-12 11:18 amSSE 22.0 25.1----30.08- 84.0 82.8----
2024-07-12 11:12 amSSE 21.0 25.1----30.08- 83.8 82.8----
2024-07-12 11:06 amSSE 22.9 25.1----30.08- 83.8 82.8----
2024-07-12 11:00 amSSE 21.0 25.1----30.09+0.05 83.8 82.8----
2024-07-12 10:54 amSSE 21.0 24.1----30.08- 83.8 82.8----